Regional Weather Roundup
Issued by NWS

Home | Current Version | Previous Version | Graphics & Text | Print | Product List | Glossary On
Versions: 1 2 3 4 5 6 7 8 9 10 11 12 13 14 15 16 17 18 19 20 21 22 23 24 25 26 27 28 29 30 31 32 33 34 35 36 37 38 39 40 41 42 43 44 45 46 47 48 49 50
000
ASUS43 KLOT 250910
RWRIL

ILLINOIS REGIONAL WEATHER ROUNDUP
NATIONAL WEATHER SERVICE CHICAGO/ROMEOVILLE IL
400 AM CDT SAT OCT 25 2014

NOTE: "FAIR" INDICATES FEW OR NO CLOUDS BELOW 12,000 FEET WITH NO
SIGNIFICANT WEATHER AND/OR OBSTRUCTIONS TO VISIBILITY.

* THESE STATIONS ARE NOT UNDER NWS QUALITY CONTROL. THEY ALSO MAY NOT
  REPORT WEATHER SUCH AS PRECIPITATION OR FOG.

ILZ001-002-007-009-015-016-024-251000-
NORTHWEST ILLINOIS

CITY           SKY/WX    TMP DP  RH WIND       PRES   REMARKS
MOLINE         FOG       56  55  97 W7        29.94S VSB 3/4
STERLING*      CLOUDY    57  54  88 W8        29.93F
SAVANNA*       CLOUDY    60  57  92 W3        29.93S FOG
$$

ILZ003-004-008-010-011-017-018-251000-
NORTH CENTRAL ILLINOIS

CITY           SKY/WX    TMP DP  RH WIND       PRES   REMARKS
ROCKFORD       CLOUDY    57  54  89 W3        29.94F FOG
FREEPORT*      CLOUDY    58  56  92 W9        29.94S FOG
ROCHELLE*      CLOUDY    56  55  96 W7        29.92F FOG
DE KALB*       CLOUDY    55  54  97 W10G21    29.92S FOG
PERU*          CLOUDY    56  53  88 W9        29.94R
$$

ILZ005-006-012>014-019>023-251000-
NORTHEAST ILLINOIS

CITY           SKY/WX    TMP DP  RH WIND       PRES   REMARKS
CHICAGO-OHARE  CLOUDY    57  52  83 W9        29.90R
CHICAGO-MIDWAY CLOUDY    58  53  84 W7        29.91R
AURORA         CLOUDY    57  54  89 W10       29.92S FOG
LANSING*       PTCLDY    54  52  93 SW7       29.90S
JOLIET*        MOCLDY    55  51  86 W5        29.93R
WAUKEGAN       PTCLDY    56  53  90 VRB6      29.88R
DUPAGE AIRPORT MOCLDY    55  52  89 W6        29.90F
KANKAKEE*      PTCLDY    53  51  90 W6        29.92S
WHEELING       CLOUDY    59  53  80 W7        29.91R
MORRIS*        MOCLDY    51  50  96 W3        29.92R
ROMEOVILLE*    MOCLDY    55  52  92 W6        29.92R
NORTHERLY ISL    N/A     58  51  78 W6          N/A
$$

LMZ740>746-251000-
SOUTHERN LAKE MICHIGAN

STATION/POSITION SKY/WX   TEMP    WIND        PRES    VSBY  WAVE
                          AIR SEA DIR/SP/G                  HT/PER
                          (F)     (DEG/KT/KT) (MB)    (MI)  (FT/S)
SOUTHERN BUOY              56 54  240/ 12/ 12 1011.3S         1/ 3
WAUKEGAN HARBOR            58     270/ 10/ 17   N/A
HARRISON CRIB              60     230/ 11/ 14   N/A
BURNHAM HARBOR             58     270/  7/  8   N/A
CALUMET HARBOR             56     250/  3/  4 1011.6R
MICHIGAN CITY              56     180/ 11/ 13   N/A
$$

ILZ025>027-034>036-040-047-049-050-058-095>099-251000-
WEST-CENTRAL ILLINOIS

CITY           SKY/WX    TMP DP  RH WIND       PRES   REMARKS
QUINCY         FOG       56  56 100 W6        29.97R VSB 1/2
GALESBURG*     FOG       50  50  99 CALM      29.96R VSB<1/4
MACOMB*        FOG       47  47 100 W6        29.97S VSB 1/4
PITTSFIELD*    PTCLDY    61  58  90 W5        29.97F
$$

ILZ028>032-037-038-041>044-048-051>054-059>061-251000-
CENTRAL ILLINOIS

CITY           SKY/WX    TMP DP  RH WIND       PRES   REMARKS
PONTIAC        PTCLDY    55  51  89 W8        29.94R
BLOOMINGTON    MOCLDY    57  53  86 W7        29.95S
DECATUR        MOCLDY    60  53  77 W8        29.95F
PEORIA         PTCLDY    52  49  89 CALM      29.95R
LACON*         PTCLDY    52  49  88 CALM      29.94R
LINCOLN*       MOCLDY    55  51  87 CALM      29.93S
SPRINGFIELD    MOCLDY    54  51  90 VRB3      29.96S
TAYLORVILLE    PTCLDY    59  54  82 W9        29.96F
$$

ILZ033-039-045-046-055>057-062-063-251000-
EAST-CENTRAL ILLINOIS

CITY           SKY/WX    TMP DP  RH WIND       PRES   REMARKS
CHAMPAIGN      MOCLDY    54  51  90 MISG      29.94F
DANVILLE*      PTCLDY    55  52  88 SW7       29.90F
RANTOUL*       MOCLDY    56  53  89 SW7       29.92F
MATTOON        MOCLDY    59  52  77 SW8       29.95S
PARIS*         MOCLDY    59  54  84 SW6       29.96F
$$

ILZ079-100>102-251000-
SOUTHWEST ILLINOIS

CITY           SKY/WX    TMP DP  RH WIND       PRES   REMARKS
ALTON          CLOUDY    59  55  87 SW3       29.98S
BELLEVILLE     PTCLDY    54  54  99 CALM      29.98S
CAHOKIA*       PTCLDY    55  54  96 CALM      29.99S FOG
SPARTA*        CLEAR     58  55  89 S3        30.00F
$$

ILZ064>066-069>071-074>076-080>082-084>086-088>090-092>094-251000-
SOUTH-CENTRAL ILLINOIS

CITY           SKY/WX    TMP DP  RH WIND       PRES   REMARKS
CARBONDALE     CLEAR     55  52  89 S6        30.00F
CAIRO*         PTCLDY    54  51  90 CALM      30.03F
EFFINGHAM*     MOCLDY    59  51  74 SW5       29.97F
MARION         CLEAR     57  54  88 S6        30.01S
MT. VERNON     PTCLDY    52  46  82 CALM      30.00S
CENTRALIA*     CLEAR     56  52  84 CALM      29.98F
SALEM*         CLEAR     58  55  92 SW5       29.99S
METROPOLIS*      N/A     49  49 100 CALM      30.02F FOG
$$

ILZ067-068-072-073-078-083-087-091-251000-
SOUTHEAST ILLINOIS

CITY           SKY/WX    TMP DP  RH WIND       PRES   REMARKS
LAWRENCEVILLE  CLOUDY    56  53  90 S6        29.99F
FLORA*         PTCLDY    59  53  82 SW6       29.98F
FAIRFIELD*     CLOUDY    57  54  88 S3        29.99S
HARRISBURG*    PTCLDY    53  53 100 CALM      30.02S
ROBINSON*      CLOUDY    60  55  84 S6        29.98F
CARMI*         MOCLDY    55  55  97 S3        30.00S
$$

ABBREVIATIONS USED IN REMARKS
   TC - TEMPERATURE IN CELSIUS
  WCI - WIND CHILL INDEX
   HX - HEAT INDEX
  VSB - VISIBILITY
$$




USA.gov is the U.S. government's official web portal to all federal, state and local government web resources and services.